User: anonymous   Login
Location: ????
(55.2778°N, 39.2433°E)
Time: 16:07:03
(UTC+00:00)
Language:

WILDFIRE 1 - Orbit

View from above orbital plane
View from above orbital plane
View from above satellite
View from above satellite

Ground track
Ground track

The orbit data is extracted from the following two-line orbital elements,

1 57764U 23133H   24251.76882134  .00000197  00000-0  16313-3 0  9998
2 57764  80.9958 268.7777 0005536 316.9874  43.0849 13.85529899 51396
Epoch (UTC): 07 September 2024 18:27:06
Eccentricity: 0.0005536
inclination: 80.9958°
perigee height: 940 km
apogee height: 948 km
right ascension of ascending node: 268.7777°
argument of perigee: 316.9874°
revolutions per day: 13.85529899
mean anomaly at epoch: 43.0849°
orbit number at epoch: 5139

The dashed part of the orbit path shows where the satellite is in the earth's shadow,  

DLR